Location: Zihuatanejo
(17.6330°N, 101.5500°W)
Time: 11:43:56
(UTC-05:00)

Daily predictions for brighter satellites

Satellite Brightness Start Highest point End
(mag) Time Altitude Azimuth Time Altitude Azimuth Time Altitude Azimuth
NOSS 3-2 (C) 3.5 20:36:12 10° SSW 20:42:00 80° WNW 20:48:05 10° NNE
Cosmos 1633 Rocket 3.1 20:40:07 10° S 20:44:29 89° E 20:48:53 10° N
Cosmos 1943 Rocket 3.9 20:43:10 10° ESE 20:44:51 11° E 20:46:32 10° E
Cosmos 2233 Rocket 4.2 20:40:05 10° N 20:46:12 78° W 20:52:22 10° S
ALOS 2.3 20:42:31 10° SSE 20:47:11 82° ENE 20:51:51 10° N
Cosmos 1707 Rocket 3.6 20:47:19 10° N 20:51:37 57° E 20:55:52 10° SSE
Jikiken 4.4 20:50:52 10° WSW 20:52:20 76° SSE 20:53:35 10° ENE
SL-27 R/B 3.1 20:48:56 10° NNW 20:52:22 57° WSW 20:55:51 10° S
Sich 1 4.0 20:48:47 10° SSW 20:52:57 52° W 20:57:11 10° N
CENTAUR R/B 2.9 20:51:36 10° S 20:56:33 32° ESE 21:01:49 10° NE
Cosmos 990 Rocket 3.9 20:52:43 10° S 20:57:50 66° ESE 21:02:59 10° NNE
Cosmos 1898 Rocket 4.0 20:52:59 10° SSW 20:58:11 66° WNW 21:03:26 10° N
CZ-3A R/B 2.9 20:48:50 10° W 21:00:43 50° NNW 21:03:36 10° ENE
Molniya-1 3.0 20:58:23 10° SSW 21:01:29 86° ESE 21:03:38 10° NNE
COSMOS 2455 2.8 20:56:09 10° S 21:02:04 63° ESE 21:07:59 10° NNE
GMS 1 Rocket B 4.3 20:57:59 10° WNW 21:02:16 76° SSW 21:05:32 14° ESE
Cosmos 1464 Rocket 4.2 20:57:26 10° N 21:03:39 56° E 21:09:52 10° SSE
Cosmos 1933 Rocket 3.6 20:59:54 10° S 21:04:07 57° E 21:08:22 10° NNE
SJ-6B 2.6 21:01:17 10° SSE 21:05:00 86° ENE 21:08:47 10° N
Delta R/B 3.0 21:03:23 10° W 21:05:52 36° NNW 21:07:08 10° NE
Cosmos 2369 Rocket 2.5 21:00:54 10° S 21:06:11 43° ESE 21:11:30 10° NE
Cosmos 2112 Rocket 4.3 21:02:22 10° N 21:07:31 48° ENE 21:12:36 10° SSE
Cosmos 2242 Rocket 4.2 21:04:21 10° NNE 21:08:25 35° E 21:12:08 12° SSE
Cosmos 1680 Rocket 3.6 21:04:10 10° N 21:09:25 62° ENE 21:14:38 10° SSE
FengYun 1-2 T 4.2 21:04:14 10° SSE 21:09:44 84° ENE 21:15:17 10° N
Resurs 01 Rocket 2.2 21:08:28 11° SE 21:12:20 39° ENE 21:16:27 10° N
Cosmos 1072 Rocket 4.5 21:07:03 10° N 21:13:26 78° E 21:19:43 10° S
Delta 168 4.4 21:11:57 10° NW 21:14:44 24° N 21:18:09 10° ENE
Lacrosse 5 rocket 2.9 21:13:08 10° WSW 21:16:25 33° NW 21:19:41 10° N
Cosmos 1869 4.0 21:13:14 10° NNW 21:17:07 55° W 21:21:02 10° S
Delta 7925 Rocket 3.5 21:14:57 10° WSW 21:19:33 69° NNW 21:24:43 10° ENE
PSLV R/B 3.6 21:16:34 10° WNW 21:19:35 49° SW 21:21:16 22° SSE
Cosmos 1862 Rocket 4.4 21:16:47 10° NNE 21:20:48 32° E 21:22:53 21° SE
Cosmos 1939 Rocket 4.4 21:24:57 19° E 21:25:19 19° ENE 21:28:14 10° NNE
BREEZE-M DEB (TANK) 4.2 21:16:12 10° SSW 21:27:22 32° SE 21:29:39 23° ESE
Cosmos 1816 Rocket 4.4 21:22:40 10° S 21:28:53 79° E 21:35:02 10° N
Cosmos 2346 Rocket 4.4 21:25:54 10° S 21:31:50 60° E 21:37:45 10° NNE
COSMOS 2487 2.4 21:31:51 10° N 21:35:20 62° ENE 21:36:24 39° SE
Aureole 1 4.1 21:32:46 10° SSW 21:35:53 79° W 21:38:52 10° N
Cosmos 1933 3.2 21:32:36 10° N 21:36:34 64° E 21:38:26 29° SSE
Timation 2 Rocket 4.4 21:30:53 10° N 21:37:06 47° ENE 21:40:26 27° SE
Aurora 2 Rocket 3.2 21:36:32 10° WNW 21:42:20 54° N 21:44:17 30° ENE
Resurs 1-3 3.5 21:39:56 20° S 21:42:55 88° W 21:47:18 10° NNW
Meteor 2-10 Rocket 3.7 21:42:07 10° N 21:47:56 89° W 21:52:19 18° S
Hubble Space Telescope 1.2 21:46:40 10° WNW 21:50:44 53° NNE 21:51:34 44° ENE
DNEPR-1 R/B 4.4 21:44:48 10° SSW 21:51:01 73° WNW 21:56:07 10° NNE
Meteor 1-29 3.7 21:50:13 10° NNE 21:52:37 39° NE 21:52:37 39° NE
SWIFT 4.1 21:50:40 10° SW 21:52:29 19° SSW 21:52:29 19° SSW
Meteor 2-3 Rocket 4.1 21:49:15 10° SSW 21:54:57 66° W 22:00:37 10° N
GPS 2-15 Rocket1 2.9 21:58:43 10° W 22:03:22 84° SSW 22:03:48 73° ESE
Cosmos 1869 Rocket 3.3 22:03:38 74° SE 22:03:55 79° E 22:08:14 10° N
Spot 2 Rocket 4.2 22:04:10 19° S 22:07:35 50° W 22:12:31 10° NNW
Cosmos 2082 Rocket 3.4 22:04:00 10° NW 22:09:12 39° WSW 22:13:10 16° SSW
Meteor 1-26 Rocket 4.2 22:04:53 10° N 22:10:37 90° E 22:12:37 43° S
USA 186 4.5 22:16:32 14° WNW 22:16:32 14° WNW 22:17:27 10° NW
Cosmos 1833 Rocket 4.1 22:13:04 10° NW 22:18:01 33° WSW 22:21:33 17° SSW
Helios 1B rocket 3.8 22:15:48 10° N 22:19:35 38° WNW 22:22:01 19° SW
GPS 2-17 Rocket1 3.5 22:20:14 10° WNW 22:23:55 55° NW 22:23:55 55° NW
Cosmos 1943 Rocket 2.9 22:22:38 10° SSW 22:28:06 52° WNW 22:33:31 10° N
Envisat 4.2 22:33:06 30° SW 22:34:37 37° W 22:39:17 10° NNW
Cosmos 2344 3.9 22:27:41 10° SW 22:35:42 65° WNW 22:43:21 10° NNE
NOSS 3-3 (A) 4.4 22:34:43 10° NNW 22:42:38 81° ENE 22:43:31 72° SE
NOSS 3-3 (C) 4.4 22:34:48 10° NNW 22:42:44 80° ENE 22:43:36 72° ESE
Cosmos 1634 Rocket 4.3 22:44:34 10° NNW 22:50:46 62° W 22:51:19 59° WSW
Milstar 3 4.1 22:47:33 10° W 22:59:23 49° NNW 23:03:20 29° NE
H-2A R/B 4.3 23:22:48 19° N 23:22:48 19° N 23:24:18 10° N
ATLAS 5 CENTAUR R/B 4.2 23:20:01 10° N 23:22:41 24° NNE 23:22:41 24° NNE
